WX4SGA Weather Reports


time (UTC)temp
C
wind
direction
speed
KPH
gust
KPH
rain 1hr
cm
rain 24hr
cm
rain mn
cm
humidity
%
barometer
mb
20260505152910 25 154 4.8 9.7 0.00 0.00 0.00 61 1018.0
20260505152408 25 121 1.6 3.2 0.00 0.00 0.00 62 1018.0
20260505151907 25 130 1.6 6.4 0.00 0.00 0.00 63 1018.3
20260505151404 25 72 1.6 3.2 0.00 0.00 0.00 63 1018.3
20260505150901 25 348 3.2 6.4 0.00 0.00 0.00 63 1018.0
20260505150359 25 156 3.2 6.4 0.00 0.00 0.00 63 1018.0
20260505140322 23 168 0.0 6.4 0.00 0.00 0.00 68 1017.6
20260505130246 21 82 1.6 1.6 0.00 0.00 0.00 72 1017.3
20260505124736 20 89 1.6 3.2 0.00 0.00 0.00 75 1016.9
20260505124233 19 69 1.6 3.2 0.00 0.00 0.00 75 1017.3
20260505123729 20 75 1.6 1.6 0.00 0.00 0.00 75 1017.3
20260505123226 19 52 0.0 0.0 0.00 0.00 0.00 76 1017.3
20260505122722 19 57 0.0 0.0 0.00 0.00 0.00 77 1017.3
20260505122220 18 62 0.0 1.6 0.00 0.00 0.00 78 1017.3
20260505121716 18 61 0.0 0.0 0.00 0.00 0.00 80 1016.9
20260505121213 17 69 1.6 3.2 0.00 0.00 0.00 80 1016.9
20260505120709 17 52 0.0 1.6 0.00 0.00 0.00 85 1016.9
20260505120205 16 51 0.0 1.6 0.00 0.00 0.00 85 1016.9
20260505115658 16 48 0.0 1.6 0.00 0.00 0.00 86 1016.9
20260505115157 16 63 0.0 1.6 0.00 0.00 0.00 87 1016.9
20260505114654 15 63 0.0 1.6 0.00 0.00 0.00 90 1016.9
20260505114150 15 58 0.0 0.0 0.00 0.00 0.00 91 1016.9
20260505113646 14 48 0.0 0.0 0.00 0.00 0.00 95 1016.9
20260505113143 13 57 0.0 0.0 0.00 0.00 0.00 95 1016.9
20260505112639 13 56 0.0 0.0 0.00 0.00 0.00 96 1016.9
20260505112138 13 57 0.0 0.0 0.00 0.00 0.00 96 1016.9
20260505111631 13 57 0.0 0.0 0.00 0.00 0.00 97 1016.9
20260505111127 13 58 0.0 0.0 0.00 0.00 0.00 97 1016.9
20260505110623 13 58 0.0 0.0 0.00 0.00 0.00 97 1016.9
20260505110121 13 59 0.0 0.0 0.00 0.00 0.00 97 1016.6
20260505102056 13 55 0.0 0.0 0.00 0.00 0.00 96 1016.3
20260505101555 13 56 0.0 1.6 0.00 0.00 0.00 96 1016.3
20260505101051 13 47 0.0 0.0 0.00 0.00 0.00 96 1016.3
20260505100548 13 28 0.0 0.0 0.00 0.00 0.00 96 1016.3
20260505100044 13 53 0.0 0.0 0.00 0.00 0.00 96 1016.6
20260505095541 13 55 0.0 0.0 0.00 0.00 0.00 95 1016.6
20260505095037 13 56 0.0 0.0 0.00 0.00 0.00 95 1016.3
20260505094534 13 57 0.0 0.0 0.00 0.00 0.00 95 1016.3
20260505094030 13 56 0.0 0.0 0.00 0.00 0.00 95 1016.3
20260505093527 13 56 0.0 0.0 0.00 0.00 0.00 94 1016.3
20260505093024 13 56 0.0 0.0 0.00 0.00 0.00 94 1016.3
20260505092521 14 64 0.0 1.6 0.00 0.00 0.00 94 1016.3
20260505092020 13 62 1.6 3.2 0.00 0.00 0.00 94 1016.6
20260505091517 13 36 0.0 0.0 0.00 0.00 0.00 95 1016.3
20260505091014 13 37 0.0 0.0 0.00 0.00 0.00 95 1016.3
20260505090512 13 61 0.0 0.0 0.00 0.00 0.00 96 1016.3
20260505090009 13 61 0.0 0.0 0.00 0.00 0.00 95 1016.3
20260505085507 13 61 0.0 0.0 0.00 0.00 0.00 95 1016.3
20260505085005 13 61 0.0 0.0 0.00 0.00 0.00 95 1016.3
20260505084503 13 61 0.0 0.0 0.00 0.00 0.00 95 1016.3
20260505084001 13 61 0.0 0.0 0.00 0.00 0.00 94 1016.3
20260505083458 13 61 0.0 0.0 0.00 0.00 0.00 94 1015.9
20260505082954 13 61 0.0 0.0 0.00 0.00 0.00 94 1016.3
20260505082450 13 61 0.0 0.0 0.00 0.00 0.00 93 1016.3
20260505081947 13 61 0.0 0.0 0.00 0.00 0.00 93 1016.3
20260505081444 14 61 0.0 0.0 0.00 0.00 0.00 93 1015.9
20260505080940 14 61 0.0 0.0 0.00 0.00 0.00 93 1015.9
20260505080436 14 61 0.0 0.0 0.00 0.00 0.00 92 1015.9
20260505075932 14 61 0.0 0.0 0.00 0.00 0.00 92 1015.9
20260505075429 15 61 0.0 0.0 0.00 0.00 0.00 91 1015.9
20260505074926 15 61 0.0 0.0 0.00 0.00 0.00 91 1015.9
20260505074424 15 61 0.0 0.0 0.00 0.00 0.00 90 1015.9
20260505073921 15 62 0.0 0.0 0.00 0.00 0.00 90 1016.3
20260505073418 15 61 0.0 0.0 0.00 0.00 0.00 90 1015.9
20260505072915 15 59 0.0 0.0 0.00 0.00 0.00 90 1015.9
20260505072411 15 59 0.0 0.0 0.00 0.00 0.00 90 1015.9
20260505071908 15 59 0.0 0.0 0.00 0.00 0.00 90 1015.9
20260505071404 15 60 0.0 0.0 0.00 0.00 0.00 89 1015.9
20260505070902 15 64 0.0 0.0 0.00 0.00 0.00 89 1015.9
20260505070358 15 59 0.0 0.0 0.00 0.00 0.00 89 1016.3
20260505065854 15 59 0.0 0.0 0.00 0.00 0.00 89 1016.3
20260505065351 15 59 0.0 0.0 0.00 0.00 0.00 88 1016.3
20260505064848 15 59 0.0 0.0 0.00 0.00 0.00 88 1016.3
20260505064345 15 60 0.0 0.0 0.00 0.00 0.00 88 1016.3
20260505063843 15 59 0.0 0.0 0.00 0.00 0.00 87 1016.3
20260505063338 15 59 0.0 0.0 0.00 0.00 0.00 86 1016.3
20260505062835 15 59 0.0 0.0 0.00 0.00 0.00 86 1016.6
20260505062333 15 58 0.0 0.0 0.00 0.00 0.00 86 1016.6
20260505061829 15 59 0.0 0.0 0.00 0.00 0.00 86 1016.3
20260505061328 15 60 0.0 0.0 0.00 0.00 0.00 85 1016.6
20260505060825 15 57 0.0 0.0 0.00 0.00 0.00 85 1016.6
20260505060322 15 56 0.0 0.0 0.00 0.00 0.00 84 1016.9
20260505055817 16 56 0.0 0.0 0.00 0.00 0.00 84 1016.6
20260505055313 16 53 0.0 0.0 0.00 0.00 0.00 83 1016.9
20260505054811 16 53 0.0 0.0 0.00 0.00 0.00 83 1016.9
20260505054308 16 60 0.0 0.0 0.00 0.00 0.00 82 1016.9
20260505053807 16 62 0.0 0.0 0.00 0.00 0.00 82 1016.9
20260505053303 16 65 0.0 0.0 0.00 0.00 0.00 81 1016.9
20260505052800 16 55 0.0 0.0 0.00 0.00 0.00 81 1016.9
20260505052257 16 58 0.0 0.0 0.00 0.00 0.00 81 1016.9
20260505051754 16 58 0.0 0.0 0.00 0.00 0.00 80 1016.9
20260505051252 16 74 0.0 0.0 0.00 0.00 0.00 80 1016.9
20260505050749 16 64 0.0 0.0 0.00 0.00 0.00 81 1016.9
20260505050248 16 59 0.0 0.0 0.00 0.00 0.00 79 1017.3
20260505041718 16 64 0.0 1.6 0.00 0.00 0.00 78 1017.3
20260505041215 16 61 0.0 0.0 0.00 0.00 0.00 78 1017.3
20260505040712 16 62 0.0 0.0 0.00 0.00 0.00 78 1017.3
20260505040209 16 61 0.0 0.0 0.00 0.00 0.00 79 1017.3
20260505035707 16 62 0.0 0.0 0.00 0.00 0.00 77 1017.3
20260505035203 16 61 0.0 0.0 0.00 0.00 0.00 76 1017.3
20260505034659 16 60 0.0 0.0 0.00 0.00 0.00 74 1017.6
20260505034156 16 60 0.0 0.0 0.00 0.00 0.00 73 1017.6
20260505033652 16 72 0.0 0.0 0.00 0.00 0.00 72 1017.6
20260505033151 16 60 0.0 0.0 0.00 0.00 0.00 73 1017.3
20260505032648 16 58 0.0 0.0 0.00 0.00 0.00 72 1017.3
20260505032144 17 59 0.0 0.0 0.00 0.00 0.00 72 1017.6
20260505031642 17 57 0.0 0.0 0.00 0.00 0.00 72 1017.6
20260505031138 17 62 0.0 0.0 0.00 0.00 0.00 71 1017.6
20260505030635 17 61 0.0 1.6 0.00 0.00 0.00 69 1017.6
20260505030131 17 59 0.0 1.6 0.00 0.00 0.00 68 1017.3
20260505025627 17 73 0.0 0.0 0.00 0.00 0.00 68 1017.3
20260505025126 17 125 3.2 4.8 0.00 0.00 0.00 68 1017.3
20260505024623 17 62 0.0 3.2 0.00 0.00 0.00 68 1017.3
20260505024120 17 72 1.6 4.8 0.00 0.00 0.00 67 1017.3
20260505023617 16 117 1.6 3.2 0.00 0.00 0.00 70 1016.9
20260505023115 16 61 1.6 4.8 0.00 0.00 0.00 73 1016.9
20260505022612 16 59 0.0 0.0 0.00 0.00 0.00 71 1016.9
20260505022109 16 58 0.0 0.0 0.00 0.00 0.00 72 1016.9
20260505021605 16 58 0.0 0.0 0.00 0.00 0.00 72 1016.9
20260505021102 16 58 0.0 0.0 0.00 0.00 0.00 71 1016.6
20260505020603 16 58 0.0 0.0 0.00 0.00 0.00 70 1016.6
20260505020059 16 58 0.0 0.0 0.00 0.00 0.00 72 1016.6
20260505015556 17 59 0.0 0.0 0.00 0.00 0.00 71 1016.6
20260505015053 17 59 0.0 0.0 0.00 0.00 0.00 69 1016.6
20260505014550 17 59 0.0 0.0 0.00 0.00 0.00 65 1016.6
20260505014047 17 59 0.0 0.0 0.00 0.00 0.00 66 1016.6
20260505013544 17 59 0.0 0.0 0.00 0.00 0.00 67 1016.3
20260505013042 17 57 0.0 0.0 0.00 0.00 0.00 66 1016.3
20260505012540 17 58 0.0 0.0 0.00 0.00 0.00 66 1016.3
20260505012036 18 59 0.0 0.0 0.00 0.00 0.00 65 1016.3
20260505011531 18 59 0.0 0.0 0.00 0.00 0.00 63 1016.3
20260505011029 18 59 0.0 0.0 0.00 0.00 0.00 63 1016.3
20260505010524 18 60 0.0 0.0 0.00 0.00 0.00 61 1016.3
20260505010021 18 59 0.0 0.0 0.00 0.00 0.00 60 1016.3
20260505005517 18 61 0.0 0.0 0.00 0.00 0.00 61 1016.3
20260505005015 18 57 0.0 0.0 0.00 0.00 0.00 62 1016.3
20260505004512 19 62 0.0 0.0 0.00 0.00 0.00 61 1016.3
20260505004008 19 67 0.0 0.0 0.00 0.00 0.00 60 1015.9
20260505003506 20 66 0.0 0.0 0.00 0.00 0.00 59 1016.3
20260505003003 20 65 0.0 0.0 0.00 0.00 0.00 58 1015.9
20260505002458 20 69 0.0 0.0 0.00 0.00 0.00 57 1016.3
20260505001957 20 70 0.0 0.0 0.00 0.00 0.00 56 1015.9
20260505001454 21 69 0.0 0.0 0.00 0.00 0.00 54 1015.9
20260505000950 21 66 0.0 0.0 0.00 0.00 0.00 52 1015.9
20260505000449 21 64 0.0 0.0 0.00 0.00 0.00 51 1015.9
20260504235945 21 67 0.0 0.0 0.00 0.00 0.00 50 1015.9
20260504235442 22 59 0.0 0.0 0.00 0.00 0.00 48 1015.9
20260504234939 22 59 0.0 0.0 0.00 0.00 0.00 51 1015.9
20260504234436 22 58 0.0 0.0 0.00 0.00 0.00 52 1015.9
20260504233932 22 65 0.0 1.6 0.00 0.00 0.00 49 1015.9
20260504233428 22 61 0.0 1.6 0.00 0.00 0.00 51 1015.9
20260504232925 23 72 1.6 1.6 0.00 0.00 0.00 48 1015.9
20260504232423 23 44 0.0 0.0 0.00 0.00 0.00 47 1015.9
20260504231920 23 56 0.0 0.0 0.00 0.00 0.00 45 1015.9
20260504231416 23 55 0.0 1.6 0.00 0.00 0.00 46 1015.6
20260504230912 24 49 0.0 1.6 0.00 0.00 0.00 49 1015.6
20260504230409 25 77 1.6 1.6 0.00 0.00 0.00 43 1015.6
20260504225908 25 65 1.6 1.6 0.00 0.00 0.00 44 1015.9
20260504225405 25 68 0.0 0.0 0.00 0.00 0.00 38 1015.6
20260504224902 25 95 1.6 3.2 0.00 0.00 0.00 39 1015.6
20260504224358 25 67 1.6 3.2 0.00 0.00 0.00 37 1015.6
20260504223855 25 53 1.6 1.6 0.00 0.00 0.00 36 1015.9
20260504223356 26 53 0.0 0.0 0.00 0.00 0.00 35 1015.6
20260504222852 26 72 0.0 3.2 0.00 0.00 0.00 38 1015.6
20260504222349 26 70 1.6 1.6 0.00 0.00 0.00 36 1015.6
20260504221848 26 73 1.6 1.6 0.00 0.00 0.00 38 1015.6
20260504221344 26 37 1.6 3.2 0.00 0.00 0.00 35 1015.6
20260504220842 26 42 1.6 3.2 0.00 0.00 0.00 35 1015.6
20260504220338 26 57 3.2 3.2 0.00 0.00 0.00 35 1015.6
20260504215835 26 15 3.2 3.2 0.00 0.00 0.00 34 1015.6
20260504215332 26 98 3.2 4.8 0.00 0.00 0.00 35 1015.6
20260504214828 26 57 0.0 3.2 0.00 0.00 0.00 34 1015.6
20260504214325 27 120 3.2 3.2 0.00 0.00 0.00 36 1015.6
20260504213821 27 83 3.2 3.2 0.00 0.00 0.00 40 1015.6
20260504213317 27 86 1.6 1.6 0.00 0.00 0.00 33 1015.6
20260504212815 26 27 1.6 3.2 0.00 0.00 0.00 35 1015.6
20260504212311 27 65 1.6 3.2 0.00 0.00 0.00 35 1015.6
20260504211809 27 90 1.6 1.6 0.00 0.00 0.00 33 1015.9
20260504211304 27 171 3.2 3.2 0.00 0.00 0.00 33 1015.9
20260504210802 26 60 1.6 1.6 0.00 0.00 0.00 34 1015.9
20260504210259 26 142 3.2 4.8 0.00 0.00 0.00 33 1015.9
20260504205756 27 35 0.0 6.4 0.00 0.00 0.00 33 1015.9
20260504205254 27 67 1.6 3.2 0.00 0.00 0.00 33 1015.9
20260504204752 27 40 1.6 3.2 0.00 0.00 0.00 32 1015.9
20260504204250 26 39 0.0 6.4 0.00 0.00 0.00 32 1016.3
20260504203749 26 46 0.0 4.8 0.00 0.00 0.00 33 1016.3
20260504203246 26 75 1.6 3.2 0.00 0.00 0.00 33 1016.3
20260504202741 26 147 4.8 6.4 0.00 0.00 0.00 34 1016.3
20260504202239 26 55 1.6 4.8 0.00 0.00 0.00 35 1016.3
20260504201736 27 33 1.6 3.2 0.00 0.00 0.00 34 1016.3
20260504201233 26 40 1.6 4.8 0.00 0.00 0.00 35 1016.3
20260504200731 27 166 6.4 9.7 0.00 0.00 0.00 34 1016.3
20260504200226 27 80 3.2 3.2 0.00 0.00 0.00 34 1016.3
20260504195723 26 344 4.8 6.4 0.00 0.00 0.00 34 1016.6
20260504195219 26 40 1.6 4.8 0.00 0.00 0.00 34 1016.6
20260504194716 27 145 6.4 11.3 0.00 0.00 0.00 34 1016.6
20260504194212 26 10 0.0 6.4 0.00 0.00 0.00 35 1016.6
20260504193709 26 358 3.2 6.4 0.00 0.00 0.00 33 1016.6
20260504193206 26 59 1.6 6.4 0.00 0.00 0.00 35 1016.6
20260504192705 26 55 3.2 3.2 0.00 0.00 0.00 33 1016.9
20260504192202 26 43 1.6 9.7 0.00 0.00 0.00 34 1016.9
20260504191701 26 42 1.6 6.4 0.00 0.00 0.00 31 1016.9
20260504191156 26 145 0.0 4.8 0.00 0.00 0.00 33 1016.9
20260504190652 26 76 3.2 4.8 0.00 0.00 0.00 32 1016.9
20260504190149 26 102 3.2 4.8 0.00 0.00 0.00 33 1017.3
20260504185646 26 78 3.2 6.4 0.00 0.00 0.00 34 1017.3
20260504185142 27 335 1.6 3.2 0.00 0.00 0.00 30 1017.3
20260504184638 26 337 3.2 3.2 0.00 0.00 0.00 32 1017.6
20260504184133 26 314 1.6 3.2 0.00 0.00 0.00 32 1017.6
20260504183630 26 79 3.2 6.4 0.00 0.00 0.00 31 1017.6
20260504183128 25 71 1.6 3.2 0.00 0.00 0.00 32 1017.6
20260504182625 25 41 3.2 6.4 0.00 0.00 0.00 34 1018.0
20260504182123 25 23 1.6 9.7 0.00 0.00 0.00 33 1018.0
20260504181620 25 44 0.0 11.3 0.00 0.00 0.00 36 1018.0
20260504181117 25 39 1.6 9.7 0.00 0.00 0.00 36 1018.0
20260504180616 25 20 1.6 11.3 0.00 0.00 0.00 34 1018.0
20260504180115 25 3 4.8 6.4 0.00 0.00 0.00 34 1018.0
20260504175612 25 355 9.7 14.5 0.00 0.00 0.00 35 1018.0
20260504175108 25 46 4.8 6.4 0.00 0.00 0.00 35 1018.0
20260504174607 25 34 0.0 9.7 0.00 0.00 0.00 37 1018.0
20260504174103 25 87 3.2 9.7 0.00 0.00 0.00 34 1018.3
20260504173559 25 33 1.6 4.8 0.00 0.00 0.00 37 1018.0
20260504173058 25 331 1.6 3.2 0.00 0.00 0.00 36 1018.0
20260504172553 25 43 1.6 4.8 0.00 0.00 0.00 35 1018.0
20260504172050 25 351 14.5 16.1 0.00 0.00 0.00 40 1018.0
20260504171547 25 6 3.2 6.4 0.00 0.00 0.00 37 1018.0
20260504171044 24 52 3.2 4.8 0.00 0.00 0.00 38 1018.3
20260504170539 24 17 4.8 14.5 0.00 0.00 0.00 36 1018.0